Vorticity
10 1 5 11 16 15 6 -1 3 7 6 10 18 18 7 -1 2 3 4 9 7 1 3 4 3 5 5 3 3 2 2 5 4 -0 -1 2 5 7 7 7 7 7 8 9 9 8 8 8 8 7 7 7 6 6 6 8 8 9 12 14 15 14 13 15 13 9 7 7 6 4 4 6 6 6 7 6 5 3 3 3 6 10 10 8 9
26 3 -7 4 11 13 14 7 4 5 1 3 19 26 10 -4 3 9 6 9 8 3 3 4 3 4 6 4 2 2 2 4 4 1 -1 1 4 7 8 6 6 7 6 7 9 9 8 8 8 8 8 7 7 7 7 7 7 7 11 15 16 14 13 13 11 9 7 7 6 5 5 6 7 7 7 6 5 3 2 5 9 10 9 9 8
29 18 -5 -3 7 8 8 9 6 3 -0 2 12 18 9 -0 5 8 8 11 9 2 3 5 3 4 7 4 1 2 2 3 5 2 -0 1 3 6 9 6 5 6 6 6 8 9 9 8 7 7 9 10 10 10 10 8 7 7 9 14 16 15 12 11 9 8 8 8 6 6 6 7 7 8 7 6 4 2 3 7 10 10 9 9 8
18 21 6 -4 7 12 4 3 7 3 1 6 7 5 2 4 10 10 11 14 7 -0 4 7 3 4 8 5 0 2 3 3 5 3 2 2 3 6 9 8 6 5 5 6 7 8 9 8 7 6 7 10 11 11 11 8 7 7 9 12 15 15 11 8 7 8 7 8 8 7 6 7 8 7 6 5 3 2 5 9 10 9 9 8 7
13 6 6 -0 4 14 8 4 10 8 3 5 7 6 2 2 13 19 18 12 3 -1 6 9 4 4 7 4 1 2 4 5 5 4 4 4 5 8 9 8 7 5 5 6 6 7 8 8 9 7 6 8 9 9 10 9 7 6 9 13 14 14 10 7 7 7 7 8 8 7 7 7 8 7 6 4 2 3 7 9 9 9 8 7 8
26 11 5 3 4 9 7 4 13 15 10 8 6 6 5 2 11 26 23 8 0 3 9 8 3 5 7 4 2 2 2 5 5 4 5 5 6 9 9 10 8 4 5 6 6 7 7 7 9 8 7 7 8 10 10 9 7 5 8 13 14 14 10 8 8 7 7 8 8 8 8 8 8 7 5 3 2 5 8 9 9 9 9 8 8
11 22 10 2 3 7 3 -2 5 10 9 10 7 3 5 5 11 27 23 5 2 7 7 6 4 5 6 2 1 3 2 3 4 4 5 6 7 8 8 10 9 6 4 5 6 7 7 7 8 9 10 8 8 10 11 9 6 5 8 10 13 14 11 9 8 7 7 8 8 8 8 8 8 7 4 2 3 7 9 8 8 9 9 9 9
-12 8 10 5 -0 -2 -1 -5 -3 2 3 6 4 -1 1 3 9 26 23 5 4 8 5 6 5 3 5 3 1 2 2 1 2 2 3 3 5 8 8 9 10 7 4 4 6 7 8 8 7 8 10 9 8 9 11 11 7 5 7 9 12 14 12 10 9 8 8 8 8 9 9 8 8 5 2 2 5 8 9 8 9 9 9 10 9
5 -2 1 13 7 -5 -3 -0 -0 2 1 4 6 2 0 0 6 25 26 9 5 8 4 5 5 1 5 5 1 1 2 1 0 0 2 2 2 6 8 8 10 9 5 3 4 6 9 8 7 8 9 9 8 8 10 11 8 6 6 8 11 14 13 11 9 8 8 9 10 11 9 8 7 4 2 3 6 9 8 9 10 8 8 10 8
23 4 -7 8 16 7 2 2 4 6 2 4 8 3 0 0 3 19 26 12 6 9 6 4 4 2 5 5 2 1 1 1 0 -1 0 1 1 4 6 7 9 10 7 5 2 3 7 9 7 7 8 10 9 8 10 11 9 6 6 7 10 13 13 12 9 8 9 10 11 11 9 8 5 3 2 4 7 9 8 9 9 8 9 9 8
28 14 -5 -5 10 17 11 4 3 4 5 7 6 0 1 3 1 11 21 12 2 4 5 6 4 0 3 5 3 2 1 1 -0 -2 -0 1 -0 2 5 5 7 10 9 7 3 1 4 7 9 7 7 10 10 8 9 10 9 7 5 7 9 11 13 12 9 9 9 9 11 11 9 7 4 2 3 6 8 9 8 9 9 9 9 8 7
25 20 5 -9 -1 13 14 10 7 3 5 10 5 -2 2 6 1 5 15 13 6 3 5 9 8 1 1 4 4 3 2 1 -0 -2 -1 1 0 1 3 4 5 7 10 10 5 2 2 5 8 8 6 8 10 9 9 9 10 8 5 6 8 10 12 12 10 10 9 9 11 10 8 6 3 2 4 7 9 9 8 9 9 9 9 7 7
17 22 15 -4 0 17 16 11 10 3 2 8 6 2 5 8 4 4 8 8 7 8 9 9 7 2 0 2 5 7 4 0 0 1 -0 -0 1 1 1 4 5 3 7 11 9 5 3 3 6 8 7 7 9 10 9 9 9 9 6 6 7 9 12 12 11 11 10 9 10 9 8 6 3 2 5 8 9 8 8 9 9 9 8 7 7
16 21 17 -4 -1 22 24 16 12 4 -0 4 5 6 8 7 6 6 3 -2 -5 3 18 18 6 2 3 -0 2 7 6 1 -1 0 -0 -3 -1 1 1 2 5 3 3 9 12 7 3 2 5 7 7 7 9 10 9 9 9 8 7 5 5 7 11 13 13 11 9 9 10 9 7 5 2 3 6 9 9 8 8 10 10 8 6 7 9
13 11 14 2 1 13 14 13 14 7 3 4 3 7 8 6 7 5 1 -0 -10 -9 21 32 9 0 5 0 -0 8 7 2 0 0 -0 -3 -4 0 3 2 4 3 2 6 11 10 5 3 3 6 7 8 9 9 9 8 9 8 6 5 5 6 10 13 13 11 9 8 8 8 6 4 2 4 7 9 8 8 9 10 10 7 6 8 10
8 -3 0 6 12 15 4 3 11 11 10 9 3 6 8 5 8 5 -1 3 -5 -8 25 40 13 -1 5 -2 -0 10 6 -1 0 1 1 0 -3 -2 1 3 3 3 1 4 9 9 7 5 3 4 7 8 8 8 8 8 9 8 7 6 5 6 10 14 14 12 9 8 8 7 6 4 3 4 7 9 8 7 9 11 9 6 6 8 11
15 -1 -6 -3 10 20 10 2 3 4 10 14 8 8 9 5 10 11 4 6 3 0 25 38 17 9 12 -0 -3 7 5 -2 1 1 -1 0 0 -1 0 2 4 3 2 2 6 9 9 6 4 4 6 8 8 7 7 9 9 8 8 7 6 6 9 13 16 14 9 8 8 6 5 4 3 5 8 9 8 7 9 10 9 6 7 9 12
25 12 3 -5 2 14 11 4 3 -1 4 13 11 9 10 3 6 13 10 9 7 5 18 31 24 16 15 8 3 4 -1 -3 1 1 -2 -2 -0 -0 0 2 3 4 3 1 3 9 9 7 5 5 5 7 8 7 7 9 10 9 9 8 7 7 9 13 18 15 8 8 8 5 5 4 2 6 9 8 7 7 8 10 9 6 7 10 12
26 19 12 5 7 12 7 1 1 0 4 9 7 9 13 5 1 7 6 6 10 7 9 23 25 11 6 14 16 4 -5 -3 4 5 3 2 2 0 -0 3 3 2 2 2 3 8 10 8 6 5 5 7 8 8 7 8 10 9 8 9 8 7 8 13 16 14 8 8 8 5 4 4 3 6 9 8 6 6 7 9 9 8 8 10 12
20 19 16 14 11 11 10 6 3 3 6 7 3 7 15 12 8 6 1 4 13 9 2 11 21 11 5 17 21 5 -5 0 6 8 5 3 3 1 0 3 4 1 2 3 4 7 8 7 7 6 5 6 8 10 8 6 9 10 8 8 8 7 8 11 12 13 10 8 7 5 3 3 4 6 9 8 5 5 7 9 10 9 8 11 12
18 17 16 18 14 9 7 8 8 8 6 3 0 3 8 10 12 12 6 6 14 14 7 9 18 18 12 16 17 3 -4 1 2 1 4 3 1 2 2 2 3 2 3 4 4 6 6 6 7 6 4 6 8 10 10 6 7 10 9 7 8 8 7 7 10 13 12 8 6 6 3 3 4 6 8 8 4 3 6 9 11 10 9 11 13
16 16 16 18 18 14 7 3 5 8 7 4 4 5 3 2 6 10 9 6 9 15 15 12 23 37 31 20 15 -1 -12 -1 7 3 4 5 2 2 2 3 4 3 3 4 3 3 6 7 6 6 5 5 7 10 11 8 6 9 9 7 8 8 5 5 9 12 12 9 7 6 3 3 5 6 8 8 4 3 5 9 12 10 9 12 12
14 15 15 14 15 16 14 9 6 7 11 10 7 9 7 3 3 5 5 7 9 14 12 -1 15 48 43 19 14 -2 -20 -1 19 10 4 5 2 3 3 2 4 3 1 4 4 3 7 8 6 6 5 4 6 9 11 9 6 7 8 7 8 7 4 5 9 12 12 10 7 5 3 3 5 7 7 7 4 3 4 8 11 10 10 13 12
14 14 16 15 13 11 11 13 12 12 16 12 5 9 10 4 6 7 4 5 8 16 13 -12 -10 31 44 31 28 5 -20 4 27 11 3 7 2 2 6 2 2 3 1 4 5 4 7 7 5 6 6 4 5 8 11 11 7 5 8 9 8 7 4 5 10 12 13 11 7 4 3 3 5 7 6 6 5 3 4 8 11 10 11 13 12
13 13 14 15 15 11 8 13 14 15 19 12 5 13 16 5 4 10 10 10 8 15 20 -4 -23 1 25 33 36 4 -29 -4 24 9 2 9 3 2 7 2 -0 2 2 4 7 6 7 8 6 7 6 4 5 6 10 13 8 5 8 10 8 6 3 6 12 15 13 9 6 5 3 3 6 8 6 6 5 3 4 8 11 10 11 13 11
15 12 11 12 15 13 7 10 13 12 14 8 1 13 22 12 7 9 8 7 2 4 17 12 -1 10 19 14 17 2 -25 -12 14 9 2 7 4 4 6 0 -1 3 4 5 7 6 7 7 7 7 6 3 4 6 9 13 11 7 8 9 7 6 3 5 12 16 13 9 6 5 2 3 7 7 5 6 6 3 3 7 10 11 11 13 11
18 16 12 9 13 15 10 10 13 13 16 12 3 8 15 9 9 16 13 7 3 5 16 14 5 19 29 11 -0 3 -1 -4 3 3 2 6 5 3 2 -0 1 5 6 7 7 5 6 7 7 6 4 1 2 5 9 14 14 10 8 8 7 6 4 5 11 17 14 9 6 4 2 4 8 6 4 6 5 3 3 6 9 11 11 12 11
17 19 17 10 9 12 11 10 11 12 17 18 13 16 20 8 1 8 13 10 3 2 15 20 5 5 26 25 8 8 14 7 -2 -1 4 5 2 -0 -0 0 2 4 6 7 7 6 7 7 5 4 1 1 4 6 9 14 16 12 10 9 8 7 6 5 10 16 14 8 5 4 2 5 7 6 5 6 5 2 1 4 8 10 11 12 11
14 16 17 15 11 9 9 9 9 7 8 10 7 9 19 16 7 7 12 11 4 -1 9 22 14 3 14 23 16 13 14 5 -4 2 9 6 1 2 2 1 3 6 7 8 7 5 5 3 2 1 1 2 5 7 11 15 15 12 10 9 8 8 7 5 9 14 13 8 6 5 3 5 7 6 4 5 5 3 1 2 6 9 10 12 13
14 14 15 16 15 15 13 12 15 13 11 12 12 7 8 11 10 9 10 6 3 3 3 4 7 8 9 13 21 29 28 11 -1 5 12 8 5 6 4 2 5 8 8 6 4 2 2 2 1 1 2 3 5 9 13 14 10 7 9 10 10 9 8 5 7 12 12 9 6 5 4 5 7 6 4 4 4 3 1 2 4 6 8 12 14
13 10 11 12 12 15 17 15 16 19 17 17 20 19 16 15 14 16 19 13 6 7 6 3 11 18 12 8 19 31 28 14 6 11 16 12 6 4 4 3 6 7 6 3 2 2 3 1 0 2 4 5 7 10 12 12 9 5 6 8 9 9 8 6 7 10 12 10 8 6 6 6 6 5 4 4 4 3 2 2 3 5 7 11 13
18 12 9 10 8 7 11 13 12 15 17 15 16 18 18 18 15 12 16 19 16 14 11 6 5 3 -3 -2 8 13 9 5 6 11 14 12 7 5 4 4 5 6 3 0 1 4 3 1 3 6 4 4 8 11 13 15 12 4 1 6 10 10 9 7 5 7 11 12 9 7 6 5 5 6 5 3 3 3 2 2 3 5 7 10 12
16 16 9 9 11 8 7 10 10 9 11 12 15 16 14 11 8 2 2 8 14 16 15 12 10 10 9 8 7 3 -1 1 7 11 11 10 8 7 5 4 5 5 3 2 2 3 3 5 7 5 1 3 7 9 12 14 5 -7 -6 5 12 11 9 7 5 5 9 13 11 8 6 5 4 6 6 4 3 3 2 2 2 3 5 9 13
4 11 9 7 13 15 11 10 10 9 9 8 10 15 16 13 11 10 12 14 14 12 13 13 12 13 13 9 8 8 5 4 9 12 9 7 11 11 6 4 5 3 1 2 4 4 5 6 6 4 4 5 6 11 17 15 4 -3 -0 7 11 12 9 7 5 5 7 11 11 8 6 5 4 5 6 5 3 3 3 2 2 3 4 7 12
3 4 9 6 8 13 14 14 13 13 13 11 7 7 11 12 13 14 15 16 15 12 10 10 8 8 8 8 11 14 11 5 7 7 2 1 9 13 6 2 4 4 2 2 4 4 5 5 4 7 8 5 5 13 16 10 7 10 8 4 7 11 8 5 6 6 5 8 11 10 8 5 4 4 5 5 5 4 3 2 2 3 4 6 12
13 6 8 8 8 8 7 10 13 14 15 15 12 8 8 8 11 12 12 13 14 13 11 10 8 8 9 9 9 11 11 8 9 9 4 2 6 8 5 3 4 5 4 5 5 3 4 5 6 8 9 6 6 10 11 11 17 18 7 2 10 13 8 5 6 6 5 5 7 9 9 7 5 5 4 4 5 5 3 3 3 3 3 6 11
18 15 11 8 11 11 7 7 9 11 13 15 14 13 13 11 10 10 10 10 12 13 12 12 11 9 8 8 8 10 10 9 9 11 13 13 10 5 2 3 6 7 5 6 5 4 5 6 6 6 8 10 9 8 8 12 14 4 -7 -2 11 13 8 6 6 6 6 6 5 7 9 8 6 6 4 4 5 5 4 3 3 3 3 4 10
14 14 13 10 10 10 8 7 6 6 10 14 14 14 15 14 14 13 11 10 11 12 12 12 12 13 12 11 10 9 7 5 7 12 18 20 15 7 3 5 8 10 8 7 7 8 8 7 5 5 8 11 12 12 11 10 6 -2 -3 7 15 12 10 10 9 7 7 5 4 8 10 8 7 6 5 4 4 4 4 4 3 3 3 3 9
30 17 13 15 16 14 13 13 10 6 6 8 9 10 11 11 14 16 14 11 11 11 10 11 12 12 12 13 12 11 11 9 9 13 19 18 10 3 4 8 10 9 9 8 7 7 6 4 4 7 10 10 10 12 12 13 10 5 6 12 13 9 9 13 11 7 6 7 6 5 4 4 6 6 7 8 6 4 4 4 3 4 4 4 9
44 32 21 17 17 18 19 18 14 10 8 7 7 8 8 9 12 15 15 14 14 12 10 11 10 8 9 12 12 10 10 10 9 7 9 13 13 7 4 7 9 7 6 6 4 1 2 4 4 6 10 13 12 10 9 10 7 -1 -1 8 12 10 14 19 16 7 4 7 7 4 2 3 3 2 5 10 10 5 2 3 4 5 5 5 11
26 34 35 29 26 28 29 24 17 12 10 9 9 9 9 8 9 11 11 9 9 12 13 12 8 6 8 11 13 12 10 12 15 9 2 9 22 19 7 5 9 7 4 4 3 2 6 8 6 7 13 17 17 13 8 7 6 2 0 8 17 17 14 11 7 3 6 12 13 9 4 2 1 1 4 8 10 9 5 3 5 7 6 7 14
8 17 20 18 23 32 31 28 25 20 17 17 16 12 12 11 9 10 13 11 6 7 10 9 7 8 9 8 12 16 12 11 18 17 7 9 25 23 7 2 8 9 6 7 7 7 8 7 6 10 11 9 10 14 11 8 13 12 3 3 14 19 11 5 4 6 9 15 17 14 8 5 5 5 2 -1 4 12 11 4 3 8 8 8 14
9 11 7 6 17 27 28 26 18 7 13 34 41 29 22 22 14 6 7 11 9 8 9 9 7 7 6 4 7 14 15 14 18 17 10 13 25 24 10 5 8 6 4 8 10 9 9 8 10 14 12 3 2 8 8 5 10 12 5 3 14 19 14 11 12 9 7 11 14 11 9 8 6 7 10 9 9 12 13 7 4 8 11 10 13
11 11 8 7 13 22 30 32 13 -16 -15 18 39 33 28 35 33 21 15 14 10 5 7 13 15 13 8 4 3 5 9 13 16 14 11 15 21 18 13 15 17 9 3 6 10 10 11 13 12 11 12 9 4 5 7 8 9 10 6 4 10 17 14 8 8 9 11 12 9 5 7 8 4 6 20 30 27 17 10 6 6 10 12 11 12
14 12 10 8 7 11 22 32 27 6 -5 4 16 17 18 23 26 23 21 20 17 11 9 15 23 24 20 15 11 9 8 8 8 9 12 16 14 6 2 7 14 12 8 9 11 12 14 15 10 8 11 14 11 12 16 15 13 16 11 -1 -1 13 19 12 8 9 5 -3 -6 -3 2 8 7 2 3 14 27 27 14 3 5 11 11 10 12
15 15 15 12 10 8 10 14 21 23 17 8 5 8 13 15 17 18 18 17 19 19 15 13 17 21 20 21 24 26 25 22 21 22 24 26 25 19 11 7 10 12 12 12 14 15 16 15 12 10 11 12 11 12 12 6 6 15 13 -2 -4 13 22 15 11 10 2 -1 5 7 1 4 13 10 -2 4 28 35 12 -10 -6 6 10 11 14
12 14 16 15 13 11 10 8 9 13 15 12 9 9 10 12 15 19 21 22 22 20 14 10 12 15 17 21 24 23 22 25 28 27 21 17 17 21 20 16 14 13 10 8 11 14 14 14 12 9 9 8 7 8 9 6 5 10 12 8 13 22 21 14 15 14 7 7 15 13 1 2 13 15 7 9 21 19 -3 -18 -9 6 15 17 16
6 8 13 16 16 15 14 12 10 9 10 13 15 15 15 14 12 11 13 18 20 19 15 14 14 13 13 17 18 15 13 17 23 24 18 12 10 12 13 11 11 10 7 7 10 11 10 9 6 4 7 10 10 10 12 11 10 13 18 22 23 19 12 13 19 15 4 1 8 10 9 10 13 12 10 11 13 8 -0 -3 3 11 17 20 16
7 4 6 9 13 15 16 15 14 13 11 10 10 12 16 19 18 15 12 10 11 13 15 15 13 11 10 13 16 17 14 13 16 18 18 15 12 11 10 10 9 7 6 8 10 9 8 6 4 5 9 13 13 13 13 14 23 34 35 27 19 13 8 8 9 4 -2 1 9 12 12 11 10 7 7 8 7 7 8 11 13 16 20 20 14
14 10 6 5 6 9 13 14 15 16 15 13 10 8 8 11 16 20 20 17 13 12 13 14 14 13 10 8 9 11 11 9 9 10 12 13 12 11 11 12 11 9 9 11 11 9 8 8 7 7 9 11 13 13 8 12 32 49 38 15 9 14 13 6 3 3 5 12 17 13 10 10 10 9 8 6 4 5 11 18 21 21 19 16 11
18 16 12 8 6 5 7 9 12 14 16 16 14 12 9 7 8 13 18 22 22 18 14 13 15 17 16 13 10 10 10 9 8 7 7 8 9 9 10 11 11 11 12 14 14 12 10 7 5 6 9 12 17 14 4 6 29 43 24 -1 0 14 17 12 11 12 10 11 13 12 10 10 10 11 9 6 3 7 17 24 23 18 14 11 9
Height
5730 5738 5744 5750 5755 5761 5766 5771 5774 5777 5780 5783 5786 5790 5794 5797 5800 5803 5805 5807 5809 5812 5814 5817 5820 5822 5822 5823 5824 5825 5825 5826 5826 5825 5824 5823 5822 5822 5821 5821 5820 5819 5818 5817 5817 5817 5816 5815 5815 5814 5813 5812 5812 5811 5810 5809 5807 5807 5806 5805 5804 5803 5803 5803 5802 5801 5800 5799 5798 5797 5796 5795 5794 5792 5790 5788 5786 5784 5782 5780 5777 5774 5770 5766 5763
5723 5730 5738 5744 5749 5755 5761 5765 5769 5772 5776 5779 5783 5786 5789 5793 5795 5798 5801 5803 5806 5808 5811 5814 5816 5818 5819 5820 5821 5822 5822 5823 5823 5822 5821 5821 5820 5820 5819 5818 5818 5817 5815 5815 5814 5814 5814 5813 5812 5812 5811 5810 5809 5808 5807 5806 5805 5804 5803 5803 5802 5801 5801 5801 5800 5800 5799 5798 5797 5796 5795 5794 5792 5791 5788 5787 5785 5782 5780 5778 5774 5771 5768 5764 5760
5720 5723 5731 5739 5745 5750 5755 5759 5763 5767 5771 5775 5778 5782 5785 5788 5791 5793 5797 5799 5802 5805 5807 5810 5813 5815 5816 5817 5818 5819 5820 5820 5820 5819 5819 5818 5818 5817 5817 5816 5816 5814 5813 5812 5812 5812 5812 5811 5810 5809 5808 5807 5807 5806 5805 5804 5803 5802 5801 5800 5799 5799 5799 5799 5798 5798 5797 5796 5795 5794 5793 5791 5790 5788 5786 5784 5782 5780 5778 5775 5772 5769 5766 5763 5759
5716 5718 5725 5734 5740 5745 5749 5754 5758 5762 5766 5770 5774 5778 5781 5784 5786 5789 5792 5795 5798 5801 5803 5806 5809 5811 5813 5815 5816 5817 5817 5817 5817 5817 5816 5816 5815 5815 5815 5814 5814 5812 5811 5810 5809 5809 5809 5808 5807 5806 5806 5805 5804 5803 5802 5801 5801 5800 5799 5797 5797 5796 5796 5796 5796 5796 5795 5794 5793 5791 5790 5789 5787 5786 5784 5782 5780 5778 5776 5773 5770 5767 5764 5761 5757
5713 5717 5722 5728 5734 5740 5744 5749 5753 5757 5762 5766 5770 5773 5776 5779 5781 5784 5787 5790 5793 5796 5799 5801 5804 5808 5810 5812 5813 5814 5814 5815 5815 5814 5813 5813 5813 5812 5812 5812 5811 5810 5809 5808 5807 5806 5806 5805 5805 5804 5803 5803 5802 5801 5800 5799 5798 5797 5796 5795 5794 5794 5794 5793 5793 5792 5792 5791 5790 5789 5788 5786 5784 5783 5781 5779 5777 5775 5773 5771 5768 5765 5762 5759 5755
5708 5714 5719 5724 5730 5736 5740 5744 5748 5753 5757 5761 5766 5769 5771 5774 5777 5779 5782 5785 5788 5791 5794 5797 5800 5804 5807 5809 5810 5811 5812 5812 5813 5812 5811 5810 5810 5810 5809 5809 5809 5808 5807 5806 5804 5804 5803 5803 5802 5801 5801 5801 5800 5799 5798 5797 5796 5795 5794 5793 5792 5792 5791 5791 5790 5789 5789 5789 5787 5786 5785 5783 5781 5780 5778 5776 5774 5773 5771 5769 5766 5763 5761 5757 5753
5704 5708 5714 5720 5726 5731 5735 5740 5744 5748 5752 5757 5761 5764 5766 5769 5772 5774 5777 5780 5783 5786 5790 5793 5797 5801 5804 5806 5807 5808 5809 5810 5810 5810 5809 5809 5808 5808 5807 5807 5807 5806 5805 5803 5802 5802 5801 5801 5800 5799 5799 5798 5797 5797 5796 5795 5794 5793 5792 5791 5790 5790 5789 5788 5788 5787 5786 5785 5784 5783 5781 5780 5778 5777 5775 5773 5772 5770 5768 5766 5764 5761 5758 5755 5751
5699 5704 5708 5713 5719 5725 5730 5735 5739 5743 5747 5751 5755 5758 5761 5763 5766 5769 5772 5775 5778 5782 5786 5790 5793 5796 5800 5802 5804 5805 5806 5807 5808 5808 5807 5807 5807 5806 5805 5805 5804 5804 5802 5801 5800 5799 5799 5798 5798 5797 5796 5795 5795 5794 5793 5792 5791 5791 5789 5788 5788 5787 5787 5786 5786 5785 5784 5783 5781 5780 5778 5777 5775 5774 5772 5770 5769 5767 5765 5763 5761 5759 5756 5753 5749
5694 5699 5703 5707 5712 5718 5723 5728 5733 5737 5741 5744 5748 5751 5755 5758 5761 5764 5767 5770 5773 5777 5781 5785 5788 5791 5795 5798 5800 5801 5803 5804 5805 5805 5805 5805 5805 5804 5803 5803 5802 5801 5800 5799 5798 5797 5796 5796 5795 5794 5794 5793 5792 5791 5790 5790 5789 5788 5787 5786 5785 5785 5785 5784 5783 5782 5781 5780 5779 5778 5776 5775 5773 5772 5770 5768 5766 5764 5763 5761 5759 5756 5753 5750 5747
5688 5694 5699 5703 5707 5711 5715 5719 5725 5730 5733 5737 5741 5745 5749 5752 5755 5759 5762 5764 5766 5770 5774 5778 5782 5785 5789 5793 5795 5797 5799 5801 5802 5802 5802 5802 5802 5802 5801 5800 5800 5799 5798 5797 5796 5795 5794 5793 5793 5792 5791 5790 5789 5788 5788 5787 5787 5786 5785 5784 5783 5782 5782 5781 5780 5779 5779 5778 5777 5776 5774 5772 5771 5769 5768 5766 5764 5762 5760 5758 5756 5753 5751 5748 5744
5680 5685 5692 5699 5703 5706 5709 5712 5717 5722 5727 5731 5735 5738 5743 5747 5750 5754 5757 5759 5760 5763 5767 5771 5775 5779 5783 5787 5790 5792 5795 5797 5798 5798 5799 5799 5800 5799 5799 5798 5797 5796 5795 5794 5793 5792 5791 5791 5790 5789 5788 5787 5786 5786 5785 5785 5784 5783 5782 5781 5780 5780 5779 5779 5778 5777 5777 5776 5775 5774 5772 5771 5769 5767 5766 5764 5762 5760 5758 5756 5753 5751 5748 5745 5742
5671 5678 5685 5693 5699 5703 5705 5707 5710 5715 5720 5724 5728 5732 5737 5742 5746 5750 5753 5756 5757 5758 5760 5764 5768 5772 5776 5780 5784 5788 5791 5792 5793 5794 5795 5796 5796 5796 5796 5795 5794 5793 5792 5791 5790 5789 5788 5788 5787 5787 5786 5785 5784 5783 5782 5782 5781 5780 5780 5779 5778 5777 5777 5776 5776 5775 5775 5774 5773 5771 5770 5769 5767 5765 5764 5762 5760 5758 5755 5753 5751 5748 5746 5743 5740
5667 5674 5680 5686 5692 5697 5701 5703 5705 5709 5714 5718 5722 5727 5732 5737 5741 5744 5747 5751 5753 5754 5756 5758 5761 5765 5770 5774 5779 5782 5786 5788 5789 5790 5791 5792 5792 5793 5792 5792 5791 5790 5789 5788 5787 5786 5785 5785 5784 5784 5783 5782 5781 5780 5779 5779 5778 5778 5777 5776 5776 5775 5775 5774 5773 5773 5772 5771 5770 5769 5768 5766 5765 5763 5762 5760 5758 5755 5753 5750 5748 5745 5743 5741 5738
5663 5670 5675 5679 5683 5688 5693 5699 5702 5704 5708 5713 5718 5721 5726 5731 5735 5737 5740 5743 5746 5750 5752 5754 5756 5760 5764 5768 5772 5776 5780 5782 5784 5786 5787 5788 5788 5789 5789 5788 5787 5787 5786 5785 5784 5783 5782 5782 5781 5781 5780 5779 5778 5777 5777 5776 5776 5775 5775 5774 5773 5773 5772 5771 5771 5770 5770 5769 5767 5766 5765 5764 5763 5761 5759 5757 5755 5753 5751 5748 5745 5743 5741 5739 5736
5658 5664 5670 5676 5680 5681 5684 5690 5696 5701 5704 5707 5711 5716 5720 5724 5728 5731 5734 5736 5739 5743 5747 5750 5751 5754 5758 5762 5765 5770 5774 5777 5779 5781 5783 5783 5784 5785 5785 5784 5784 5783 5782 5781 5781 5780 5779 5779 5778 5778 5777 5776 5775 5775 5774 5774 5773 5773 5772 5771 5770 5770 5769 5768 5767 5767 5766 5765 5764 5763 5762 5761 5760 5758 5757 5755 5753 5751 5748 5746 5743 5740 5738 5736 5734
5654 5658 5662 5668 5673 5676 5679 5682 5686 5693 5698 5701 5705 5709 5714 5717 5720 5723 5727 5729 5731 5734 5739 5743 5745 5749 5753 5757 5760 5764 5768 5771 5774 5776 5778 5778 5779 5780 5780 5780 5780 5779 5779 5778 5777 5777 5776 5776 5775 5775 5774 5774 5773 5772 5772 5771 5770 5770 5769 5768 5767 5767 5766 5765 5764 5764 5763 5762 5761 5760 5759 5758 5757 5755 5754 5752 5751 5749 5746 5743 5740 5738 5736 5734 5731
5649 5652 5655 5659 5663 5668 5675 5678 5679 5683 5689 5695 5700 5705 5709 5711 5713 5717 5721 5722 5723 5727 5732 5736 5741 5745 5750 5752 5756 5760 5763 5765 5768 5770 5771 5773 5774 5775 5776 5776 5775 5775 5775 5775 5774 5773 5773 5773 5772 5772 5771 5771 5770 5770 5769 5768 5767 5766 5766 5765 5765 5764 5763 5762 5761 5761 5760 5759 5758 5757 5756 5755 5754 5753 5751 5750 5748 5746 5743 5741 5738 5736 5734 5731 5728
5645 5647 5650 5654 5658 5662 5668 5673 5675 5677 5681 5687 5694 5698 5702 5704 5707 5712 5716 5716 5717 5722 5727 5730 5734 5740 5744 5747 5752 5756 5758 5760 5762 5763 5765 5767 5768 5769 5771 5771 5771 5771 5771 5771 5770 5770 5770 5769 5769 5769 5768 5767 5767 5767 5766 5766 5764 5763 5763 5762 5762 5761 5760 5759 5758 5758 5757 5756 5755 5754 5753 5752 5751 5750 5749 5747 5745 5743 5741 5738 5735 5733 5731 5728 5726
5641 5644 5646 5649 5654 5658 5661 5664 5668 5672 5675 5681 5686 5690 5693 5697 5701 5706 5710 5712 5714 5718 5722 5724 5727 5732 5736 5742 5747 5751 5754 5755 5756 5757 5759 5761 5763 5764 5765 5765 5766 5766 5766 5766 5766 5766 5766 5766 5766 5765 5764 5764 5764 5763 5763 5762 5761 5760 5760 5759 5758 5757 5756 5756 5755 5754 5754 5753 5752 5751 5750 5749 5748 5747 5746 5744 5742 5740 5738 5735 5732 5730 5728 5726 5723
5636 5639 5641 5644 5648 5652 5655 5658 5662 5666 5670 5676 5681 5685 5688 5692 5695 5699 5704 5707 5710 5713 5716 5718 5721 5725 5729 5734 5740 5745 5748 5750 5751 5752 5753 5755 5757 5758 5759 5760 5761 5762 5762 5762 5762 5763 5763 5762 5762 5761 5761 5760 5760 5760 5759 5759 5758 5757 5757 5756 5755 5754 5753 5753 5752 5751 5750 5750 5749 5748 5747 5746 5745 5744 5742 5741 5739 5737 5735 5732 5729 5727 5725 5723 5720
5631 5634 5637 5640 5643 5646 5649 5653 5658 5662 5666 5670 5675 5680 5685 5688 5691 5694 5698 5701 5705 5708 5711 5714 5716 5719 5722 5724 5729 5736 5741 5744 5746 5747 5748 5750 5751 5752 5754 5755 5756 5757 5757 5757 5758 5758 5758 5758 5757 5757 5757 5757 5756 5756 5756 5755 5755 5754 5753 5752 5751 5751 5750 5749 5749 5748 5747 5746 5745 5745 5744 5743 5742 5741 5739 5738 5736 5734 5732 5729 5727 5724 5722 5720 5718
5626 5629 5632 5635 5639 5642 5645 5650 5654 5659 5662 5666 5670 5675 5680 5683 5687 5690 5693 5696 5699 5703 5706 5711 5713 5715 5717 5719 5722 5728 5733 5737 5740 5741 5742 5744 5745 5747 5748 5750 5751 5752 5752 5753 5754 5754 5754 5753 5753 5753 5752 5752 5752 5752 5751 5751 5751 5751 5750 5749 5748 5748 5747 5746 5746 5745 5744 5743 5742 5741 5740 5739 5739 5738 5736 5735 5733 5731 5729 5726 5724 5722 5720 5718 5715
5621 5624 5627 5630 5634 5637 5641 5646 5651 5655 5660 5664 5668 5672 5675 5679 5682 5685 5688 5692 5695 5698 5702 5706 5707 5708 5710 5714 5718 5724 5728 5731 5733 5735 5737 5738 5740 5742 5743 5745 5745 5746 5748 5749 5749 5749 5749 5749 5749 5748 5748 5748 5748 5747 5747 5747 5747 5746 5746 5745 5745 5744 5744 5743 5742 5741 5740 5739 5738 5737 5736 5736 5735 5734 5733 5731 5730 5728 5725 5723 5721 5719 5717 5715 5713
5615 5618 5622 5626 5629 5632 5636 5641 5646 5651 5656 5660 5664 5668 5671 5673 5677 5680 5683 5687 5690 5693 5697 5699 5701 5703 5705 5708 5712 5718 5722 5724 5726 5728 5730 5733 5735 5736 5738 5740 5740 5741 5743 5744 5744 5744 5744 5744 5744 5743 5743 5743 5743 5742 5743 5743 5743 5742 5741 5741 5741 5741 5740 5739 5738 5737 5737 5735 5734 5733 5733 5732 5732 5731 5729 5728 5726 5724 5722 5720 5718 5716 5714 5712 5710
5611 5614 5618 5622 5625 5628 5632 5636 5642 5647 5652 5656 5659 5663 5666 5669 5672 5675 5679 5682 5686 5689 5691 5693 5695 5698 5700 5702 5705 5710 5714 5717 5719 5721 5724 5727 5729 5731 5733 5734 5735 5736 5738 5739 5739 5739 5739 5739 5739 5738 5738 5738 5738 5738 5738 5739 5739 5738 5737 5737 5737 5737 5736 5736 5735 5734 5733 5732 5731 5730 5729 5728 5728 5727 5726 5725 5723 5721 5720 5717 5715 5713 5711 5709 5707
5606 5610 5614 5617 5621 5624 5628 5633 5638 5644 5648 5652 5655 5658 5661 5665 5668 5671 5674 5678 5680 5683 5685 5687 5689 5691 5693 5696 5699 5702 5706 5709 5712 5715 5718 5721 5724 5726 5728 5729 5730 5731 5732 5733 5734 5734 5734 5734 5733 5732 5732 5732 5733 5734 5734 5735 5735 5734 5734 5733 5733 5733 5732 5732 5731 5730 5729 5728 5727 5726 5725 5725 5724 5724 5723 5721 5720 5719 5717 5715 5712 5710 5708 5706 5704
5603 5606 5610 5613 5616 5618 5623 5628 5634 5639 5643 5646 5650 5654 5657 5660 5664 5666 5668 5672 5675 5677 5679 5681 5683 5684 5687 5691 5695 5699 5703 5706 5707 5709 5713 5716 5719 5721 5722 5723 5725 5726 5726 5727 5728 5728 5728 5727 5727 5726 5725 5726 5728 5729 5730 5730 5731 5730 5730 5729 5729 5729 5728 5728 5728 5727 5726 5725 5723 5722 5721 5721 5720 5720 5719 5718 5717 5715 5714 5711 5709 5707 5705 5703 5700
5600 5603 5606 5608 5611 5613 5618 5623 5629 5634 5638 5641 5645 5649 5652 5655 5659 5661 5663 5667 5670 5673 5675 5677 5679 5682 5684 5688 5693 5697 5700 5703 5705 5707 5710 5712 5713 5714 5715 5717 5719 5720 5720 5720 5721 5721 5721 5721 5720 5720 5720 5721 5723 5725 5725 5726 5726 5726 5726 5725 5725 5724 5724 5724 5724 5723 5722 5721 5720 5719 5718 5717 5717 5716 5715 5714 5713 5712 5711 5708 5706 5704 5702 5699 5697
5596 5599 5602 5604 5607 5609 5613 5618 5624 5629 5633 5636 5640 5644 5647 5650 5653 5656 5659 5662 5665 5668 5669 5671 5674 5677 5679 5682 5686 5689 5693 5699 5704 5706 5706 5705 5705 5706 5708 5710 5711 5712 5712 5712 5713 5713 5714 5714 5714 5714 5715 5717 5718 5719 5720 5721 5721 5721 5721 5721 5720 5720 5720 5720 5720 5719 5718 5717 5716 5715 5715 5714 5713 5712 5712 5711 5709 5708 5707 5705 5703 5701 5699 5696 5694
5593 5596 5598 5601 5603 5606 5609 5613 5619 5625 5628 5631 5635 5638 5641 5644 5648 5651 5654 5656 5659 5661 5663 5666 5669 5671 5674 5676 5679 5682 5687 5693 5697 5698 5698 5697 5697 5698 5700 5702 5703 5704 5704 5705 5705 5706 5707 5708 5709 5710 5711 5712 5713 5714 5715 5715 5715 5716 5716 5716 5716 5715 5715 5716 5716 5715 5714 5713 5712 5711 5711 5710 5709 5709 5708 5707 5705 5705 5703 5702 5699 5697 5696 5693 5691
5589 5593 5595 5598 5600 5602 5604 5608 5613 5618 5623 5626 5629 5632 5635 5638 5641 5645 5648 5650 5653 5655 5658 5660 5664 5667 5670 5673 5676 5678 5682 5686 5689 5690 5692 5692 5692 5692 5692 5694 5695 5696 5698 5698 5698 5699 5700 5702 5704 5705 5705 5707 5708 5709 5709 5709 5709 5710 5710 5710 5710 5711 5711 5711 5711 5710 5710 5709 5708 5708 5707 5706 5706 5705 5704 5703 5702 5701 5699 5698 5696 5694 5691 5689 5687
5585 5588 5591 5594 5596 5598 5600 5603 5607 5612 5616 5620 5623 5626 5629 5632 5635 5639 5642 5644 5646 5649 5651 5654 5658 5662 5665 5668 5670 5672 5674 5679 5683 5685 5687 5687 5687 5687 5686 5687 5689 5690 5691 5691 5692 5693 5695 5697 5699 5700 5700 5702 5703 5704 5703 5704 5704 5704 5704 5705 5705 5706 5706 5706 5705 5705 5705 5705 5704 5704 5703 5702 5701 5701 5700 5699 5698 5697 5695 5694 5692 5690 5687 5685 5683
5580 5583 5586 5588 5591 5593 5596 5598 5602 5606 5610 5614 5617 5620 5623 5626 5629 5633 5636 5638 5640 5643 5646 5649 5653 5655 5658 5661 5664 5665 5667 5671 5675 5678 5680 5681 5682 5681 5681 5682 5682 5683 5683 5683 5685 5687 5689 5691 5693 5694 5694 5696 5698 5698 5698 5698 5698 5698 5698 5699 5700 5700 5700 5699 5699 5700 5701 5700 5699 5699 5698 5697 5697 5696 5695 5694 5693 5693 5691 5690 5688 5686 5684 5682 5679
5576 5578 5581 5583 5586 5588 5591 5594 5597 5600 5603 5607 5611 5614 5617 5620 5623 5626 5629 5632 5635 5638 5641 5645 5647 5649 5652 5655 5657 5658 5660 5663 5667 5670 5672 5674 5675 5675 5674 5674 5674 5674 5675 5677 5679 5681 5684 5686 5687 5689 5690 5691 5692 5692 5692 5693 5693 5692 5693 5694 5694 5693 5693 5693 5694 5695 5695 5694 5694 5694 5693 5693 5692 5692 5691 5690 5689 5688 5687 5685 5684 5683 5681 5678 5676
5573 5575 5577 5579 5582 5584 5586 5589 5592 5595 5598 5601 5604 5608 5611 5613 5615 5618 5621 5625 5628 5630 5634 5637 5640 5642 5644 5648 5650 5651 5652 5655 5658 5661 5664 5665 5667 5666 5665 5664 5665 5667 5670 5672 5674 5676 5678 5680 5682 5684 5685 5685 5685 5685 5686 5686 5687 5686 5686 5687 5687 5687 5686 5687 5688 5689 5688 5688 5688 5688 5687 5687 5687 5686 5685 5685 5684 5683 5682 5680 5679 5678 5677 5675 5672
5569 5571 5574 5576 5578 5580 5582 5585 5588 5590 5593 5595 5598 5601 5604 5607 5609 5612 5614 5617 5620 5622 5625 5628 5631 5633 5635 5638 5641 5642 5644 5646 5649 5652 5655 5657 5658 5657 5656 5657 5660 5663 5664 5666 5668 5669 5671 5672 5675 5678 5678 5678 5679 5679 5679 5679 5679 5680 5680 5680 5680 5680 5680 5681 5682 5682 5681 5681 5682 5682 5681 5681 5681 5680 5680 5679 5679 5677 5676 5675 5674 5673 5672 5670 5668
5565 5567 5569 5571 5573 5576 5578 5580 5582 5585 5588 5590 5592 5595 5598 5601 5603 5605 5607 5610 5613 5616 5618 5620 5623 5625 5628 5631 5633 5634 5636 5638 5641 5643 5645 5647 5648 5648 5649 5652 5655 5657 5658 5659 5661 5663 5665 5667 5669 5671 5672 5672 5673 5673 5673 5673 5673 5673 5674 5673 5672 5673 5674 5675 5675 5675 5675 5675 5676 5676 5676 5675 5675 5674 5674 5674 5673 5672 5671 5670 5669 5668 5667 5665 5664
5560 5562 5564 5567 5569 5571 5573 5575 5577 5580 5582 5584 5587 5590 5592 5595 5598 5599 5601 5604 5606 5609 5611 5613 5616 5619 5621 5623 5625 5626 5628 5630 5632 5634 5635 5637 5639 5641 5644 5647 5649 5650 5652 5653 5655 5657 5659 5661 5663 5665 5666 5666 5666 5666 5667 5666 5666 5667 5668 5667 5666 5666 5666 5668 5668 5669 5669 5669 5669 5669 5669 5669 5669 5668 5669 5668 5667 5666 5665 5664 5664 5663 5661 5660 5658
5556 5558 5560 5562 5565 5567 5569 5571 5573 5575 5577 5579 5582 5584 5587 5589 5591 5594 5596 5598 5600 5602 5605 5607 5610 5613 5615 5616 5617 5619 5620 5623 5625 5626 5628 5630 5633 5635 5637 5639 5641 5643 5645 5647 5649 5651 5652 5654 5656 5657 5658 5658 5658 5659 5659 5659 5659 5660 5662 5661 5659 5659 5659 5661 5661 5662 5662 5663 5663 5663 5663 5663 5663 5663 5663 5662 5661 5660 5660 5659 5658 5657 5656 5655 5653
5553 5555 5556 5559 5561 5563 5565 5566 5568 5570 5572 5574 5576 5579 5581 5583 5586 5588 5590 5592 5594 5596 5599 5602 5604 5606 5608 5609 5611 5612 5613 5615 5617 5619 5621 5624 5626 5627 5628 5630 5633 5635 5638 5640 5642 5643 5645 5646 5648 5649 5650 5650 5651 5651 5652 5652 5653 5654 5654 5653 5652 5651 5652 5653 5654 5655 5655 5655 5656 5656 5657 5656 5656 5656 5656 5656 5655 5654 5653 5653 5652 5652 5651 5650 5648
5551 5552 5554 5556 5557 5558 5559 5561 5563 5565 5567 5569 5571 5573 5575 5577 5579 5582 5584 5586 5588 5590 5592 5595 5598 5599 5601 5602 5604 5605 5606 5608 5609 5611 5613 5615 5617 5619 5621 5623 5625 5628 5630 5632 5635 5637 5638 5639 5640 5641 5642 5643 5643 5644 5644 5645 5646 5647 5648 5648 5647 5646 5645 5645 5646 5647 5648 5648 5649 5650 5650 5649 5649 5650 5649 5649 5648 5647 5647 5646 5646 5646 5645 5644 5643
5549 5550 5551 5552 5553 5553 5554 5556 5559 5561 5563 5564 5565 5566 5568 5570 5572 5575 5577 5579 5582 5584 5586 5588 5590 5591 5593 5594 5595 5597 5599 5601 5601 5602 5605 5607 5609 5612 5614 5616 5618 5620 5622 5625 5627 5630 5631 5632 5633 5634 5635 5635 5636 5636 5636 5637 5638 5640 5640 5641 5641 5640 5639 5639 5639 5640 5640 5640 5641 5643 5643 5642 5642 5643 5642 5642 5641 5641 5640 5640 5640 5640 5639 5638 5637
5547 5547 5548 5549 5549 5550 5551 5552 5555 5556 5558 5559 5559 5560 5561 5563 5565 5567 5569 5572 5575 5577 5579 5580 5581 5583 5584 5586 5587 5589 5591 5593 5593 5595 5598 5600 5603 5606 5608 5610 5611 5613 5614 5617 5620 5622 5623 5624 5625 5626 5627 5628 5628 5629 5629 5630 5631 5632 5633 5633 5634 5634 5633 5633 5632 5632 5633 5634 5634 5635 5636 5635 5635 5635 5634 5633 5633 5633 5633 5633 5633 5633 5633 5632 5631
5543 5544 5544 5545 5546 5546 5547 5548 5550 5551 5552 5553 5553 5554 5556 5557 5558 5560 5563 5565 5567 5569 5571 5572 5574 5575 5577 5579 5580 5582 5583 5585 5586 5588 5591 5593 5596 5599 5602 5604 5604 5605 5607 5610 5613 5615 5616 5617 5617 5618 5620 5620 5620 5621 5622 5622 5623 5624 5625 5625 5626 5626 5626 5626 5627 5627 5627 5627 5627 5628 5629 5629 5629 5628 5627 5626 5626 5625 5626 5626 5626 5626 5626 5625 5625
5540 5540 5541 5542 5542 5543 5544 5545 5546 5546 5547 5548 5549 5549 5550 5551 5553 5555 5557 5559 5560 5562 5563 5565 5566 5567 5568 5570 5572 5573 5575 5576 5578 5580 5583 5586 5588 5590 5593 5595 5597 5598 5600 5603 5605 5607 5608 5609 5610 5611 5612 5612 5613 5613 5614 5615 5615 5616 5617 5617 5618 5619 5620 5621 5621 5621 5620 5620 5620 5621 5622 5622 5622 5621 5621 5621 5620 5619 5619 5620 5619 5619 5619 5618 5618
5537 5537 5537 5538 5538 5539 5540 5541 5541 5542 5542 5543 5544 5545 5546 5547 5548 5550 5551 5552 5554 5556 5557 5558 5560 5560 5561 5562 5564 5565 5567 5568 5570 5572 5575 5578 5580 5582 5584 5587 5589 5590 5592 5595 5597 5599 5600 5602 5603 5604 5604 5605 5605 5606 5607 5608 5608 5608 5609 5610 5612 5614 5615 5615 5613 5611 5611 5612 5613 5614 5615 5615 5615 5615 5615 5615 5614 5614 5613 5613 5613 5613 5612 5611 5611
5533 5533 5533 5534 5534 5534 5535 5536 5537 5537 5538 5538 5539 5540 5541 5542 5543 5544 5546 5547 5548 5549 5550 5552 5553 5554 5554 5556 5557 5559 5560 5562 5563 5565 5568 5570 5572 5575 5577 5579 5581 5583 5584 5586 5589 5591 5593 5594 5595 5596 5596 5597 5597 5598 5599 5600 5601 5601 5602 5603 5604 5605 5607 5606 5604 5603 5604 5605 5605 5606 5607 5608 5608 5608 5608 5608 5608 5608 5608 5607 5607 5606 5605 5605 5604
5529 5529 5530 5530 5530 5530 5530 5531 5532 5532 5533 5533 5534 5535 5536 5537 5538 5539 5540 5541 5542 5543 5544 5545 5546 5547 5549 5550 5552 5554 5555 5557 5558 5560 5561 5564 5566 5568 5570 5572 5574 5575 5576 5578 5581 5583 5585 5586 5587 5587 5588 5589 5590 5590 5590 5590 5592 5593 5595 5595 5596 5596 5597 5597 5596 5596 5597 5598 5598 5599 5600 5600 5601 5601 5602 5602 5602 5602 5601 5600 5600 5599 5599 5598 5598
5525 5525 5526 5526 5526 5527 5527 5527 5527 5528 5528 5529 5530 5530 5531 5532 5533 5534 5535 5536 5536 5537 5538 5539 5541 5542 5544 5545 5547 5548 5549 5551 5552 5554 5555 5557 5560 5562 5564 5565 5567 5568 5569 5571 5573 5575 5577 5578 5579 5580 5581 5582 5582 5582 5581 5581 5583 5585 5586 5587 5588 5589 5589 5588 5589 5589 5590 5591 5592 5592 5593 5593 5594 5594 5595 5595 5595 5595 5594 5593 5593 5592 5592 5592 5592
5521 5521 5521 5522 5522 5523 5523 5523 5523 5524 5524 5525 5525 5526 5526 5526 5527 5528 5529 5530 5531 5532 5533 5534 5535 5537 5538 5540 5541 5542 5544 5545 5546 5547 5549 5551 5553 5555 5556 5558 5559 5561 5562 5564 5566 5568 5569 5570 5571 5573 5574 5574 5574 5574 5573 5574 5575 5577 5578 5580 5581 5582 5582 5582 5582 5582 5583 5584 5584 5585 5586 5586 5587 5587 5587 5588 5588 5587 5586 5586 5586 5586 5586 5586 5586
5516 5516 5517 5517 5518 5518 5519 5520 5520 5520 5520 5521 5521 5521 5521 5522 5522 5523 5524 5524 5525 5526 5527 5528 5529 5531 5532 5533 5535 5536 5538 5539 5540 5541 5543 5544 5546 5548 5549 5551 5553 5554 5556 5557 5559 5560 5561 5562 5563 5564 5565 5565 5566 5566 5566 5567 5568 5569 5570 5571 5573 5574 5574 5574 5574 5575 5576 5577 5577 5577 5578 5579 5579 5579 5579 5580 5579 5579 5579 5579 5579 5579 5579 5579 5579